Meath Environmental Platform

Observations for Trim Market St

Time AQI Temp °C Hum % Pres Pa CO μg/m³ H₂S μg/m³ NO μg/m³ NO₂ μg/m³ O₃ μg/m³ SO₂ μg/m³ PM1 μg/m³ PM2.5 μg/m³ PM10 μg/m³
Thursday 9 July 2026
03:23 1 17.7 72 51,312 0 0 0 3.6 9.18 0 1.43 3.44 5.69
03:18 1 17.8 72 51,735 0 0 0 1.08 12.13 0 1.43 2.96 5.07
03:13 1 17.9 72 52,130 0 0 0 2.88 9.89 0 1.43 3.46 5.68
03:12 1 17.9 72 52,234 0 0 0 0.78 15.58 0 2.14 3.94 6.3
03:10 1 18 72 52,275 0 0 0 1.85 12.97 0 1.43 2.97 5.06
03:09 1 18 72 52,296 0 0 0 2.55 12.78 0 1.43 2.97 5.06
03:08 1 18 72 52,318 0 0 0 2.35 8.66 0 1.43 3.46 6.3
03:07 1 18 72 52,314 0 0 0 0 12.39 0 1.43 2.97 5.06
03:06 1 18 72 52,263 0 0 0 2.55 9.57 0 0.71 2.49 4.45
03:05 1 18.1 72 52,232 0 0 0 2.63 12.89 0 2.14 3.94 6.3
03:04 1 18.1 72 52,175 0 0 0 1.73 10.02 0 0 2.01 3.83
03:03 1 18.1 72 52,127 0 0 0 1.83 14.17 0 0.71 2.49 4.45
03:02 1 18.1 72 52,077 0 0 0 3.61 7.37 0 0.71 2.97 5.07
03:01 1 18.2 72 52,045 0 0 0 1.89 12.34 0 1.43 2.97 5.68
03:00 1 18.2 72 52,011 0 0 0 4.09 16.58 0 0.71 2.97 5.07
02:59 1 18.2 72 51,947 0 0 0 2.79 9 0 1.43 2.97 5.07
02:58 1 18.2 72 51,880 0 0 0 3.28 8.32 0 1.43 2.96 5.07
02:57 1 18.2 72 51,804 0 0 0 0.19 16.75 0 2.14 3.45 5.68
02:55 1 18.2 72 51,689 0 0 0 1.48 10.4 0 1.43 2.48 4.45
02:52 1 18.2 72 51,658 0 0 0 5.68 14.44 0 2.14 3.45 6.3